Regional Weather Roundup
Issued by NWS Northern Indiana

Home | Current Version | Previous Version | Text Only | Print | Product List | Glossary Off
Versions: 1 2 3 4 5 6 7 8 9 10 11 12 13 14 15 16 17 18 19 20 21 22 23 24 25 26 27 28 29 30 31 32 33 34 35 36 37 38 39 40 41 42 43 44 45 46 47 48 49 50

000
ASUS43 KIWX 150310
RWRIWX

KIWX WEATHER ROUNDUP
NATIONAL WEATHER SERVICE NORTHERN INDIANA
1100 PM EDT SUN SEP 14 2014

NOTE: "FAIR" INDICATES FEW OR NO CLOUDS BELOW 12,000 FEET WITH NO
SIGNIFICANT WEATHER AND/OR OBSTRUCTIONS TO VISIBILITY.

* THESE STATIONS ARE NOT UNDER NWS QUALITY CONTROL. THEY ALSO MAY NOT
  REPORT WEATHER SUCH AS PRECIPITATION OR FOG.

INZ001>027-150400-
NORTHERN INDIANA

CITY           SKY/WX    TMP DP  RH WIND       PRES   REMARKS
GARY*          CLEAR     50  48  93 CALM      30.19S
VALPARAISO     CLEAR     50  47  89 CALM      30.20S
MICHIGAN CITY* CLEAR     48  48 100 CALM      30.20S
LAPORTE*       PTCLDY    47  47 100 CALM      30.20S
KNOX*          CLEAR     48  46  92 CALM      30.19S
SOUTH BEND     CLEAR     50  45  83 CALM      30.20F
GOSHEN         CLEAR     48  46  93 CALM      30.20S
MONTICELLO*    CLEAR     50  50  98 CALM      30.19S
LOGANSPORT*    CLEAR     46  45  93 CALM      30.21S
ROCHESTER*     CLEAR     50  46  87 CALM      30.20S
WARSAW*        CLEAR     46  46 100 CALM      30.21S
ANGOLA*        CLEAR     48  46  93 CALM      30.21S
FORT WAYNE     PTCLDY    49  46  90 CALM      30.22S
HUNTINGTON*    CLEAR     49  49  97 CALM      30.21R
PERU/GRISSOM   CLEAR     51  51  98 SE3       30.20S
MARION*        CLEAR     48  45  89 CALM      30.21F

$$
INZ028>050-150400-
CENTRAL INDIANA

CITY           SKY/WX    TMP DP  RH WIND       PRES   REMARKS
LAFAYETTE      CLEAR     51  48  89 CALM      30.20S
KOKOMO*        CLEAR     48  45  87 CALM      30.21S
MUNCIE*        CLEAR     51  47  86 CALM      30.21S
INDIANAPOLIS   CLEAR     57  48  72 SW3       30.20S

$$
MIZ043>046-050>051-056>058-064>065-071>073-077>080-150400-
SOUTHWEST LOWER MICHIGAN

CITY           SKY/WX    TMP DP  RH WIND       PRES   REMARKS
BATTLE CREEK   CLEAR     49  44  83 CALM      30.20F
BENTON HARBOR  CLEAR     47  46  97 CALM      30.19S
COLDWATER*     CLEAR     48  47  96 CALM      30.20S
HILLSDALE*     CLEAR     46  45  99 CALM      30.21S
HOLLAND        CLEAR     50  46  86 CALM      30.19S
GRAND RAPIDS   CLEAR     49  45  86 CALM      30.20S
KALAMAZOO      CLEAR     48  45  89 CALM      30.20F
STURGIS*       CLEAR     46  45  93 CALM      30.20S
THREE RIVERS*  FAIR      49  46  92 CALM      30.20F

$$
OHZ001>008-015>018-024>025-150400-
NORTHWEST OHIO

CITY           SKY/WX    TMP DP  RH WIND       PRES   REMARKS
WAUSEON*       FAIR      46  46 100 CALM      30.21F
DEFIANCE       CLEAR     50  47  89 CALM      30.21F
FINDLAY        CLEAR     50  46  86 CALM      30.21S
TOLEDO EXPRESS CLEAR     48  46  93 CALM      30.21F
TOLEDO METCALF CLEAR     50  45  83 SE5       30.22F
LIMA           CLEAR     50  46  86 CALM      30.21F

$$
&&


USA.gov is the U.S. government's official web portal to all federal, state and local government web resources and services.